Regional Weather Roundup
Issued by NWS

Home | Current Version | Previous Version | Graphics & Text | Print | Product List | Glossary On
Versions: 1 2 3 4 5 6 7 8 9 10 11 12 13 14 15 16 17 18 19 20 21 22 23 24 25 26 27
000
ASUS45 KCYS 211410
RWRWY

WYOMING REGIONAL WEATHER ROUNDUP
NATIONAL WEATHER SERVICE CHEYENNE WY
700 AM MST TUE FEB 21 2017

NOTE:  "FAIR" INDICATES FEW OR NO CLOUDS BELOW 12,000 FEET
WITH NO SIGNIFICANT WEATHER AND/OR OBSTRUCTIONS TO VISIBILITY.

WYZ001-211500-
YELLOWSTONE NATIONAL PARK

CITY           SKY/WX    TMP DP  RH WIND       PRES   REMARKS
LK YELLOWSTONE   N/A     33  30  88 W10G24    29.86S WCI  25
W YELLOWSTONE  NOT AVBL

$$
WYZ002>013-054>058-071-098>099-211500-
NORTHERN WYOMING

CITY           SKY/WX    TMP DP  RH WIND       PRES   REMARKS
JACKSON        CLOUDY    37  34  87 S21G28    29.90R WCI  27
CODY           FAIR      38  32  79 SE10      29.79R WCI  31
GREYBULL       FAIR      34  29  82 W6        29.78R WCI  29
WORLAND        FAIR      40  33  76 S8        29.78R WCI  34
SHERIDAN       FAIR      39  29  67 VRB7      29.71S WCI  34
BUFFALO        FAIR      48  28  46 SE9       29.75S
GILLETTE       FAIR      47  33  58 SW22      29.74R
HULETT         FAIR      45  32  61 SW12G17   29.78S
NEWCASTLE      FAIR      45  32  61 SE13      29.84F

$$
WYZ014>020-022>026-101>103-211500-
CENTRAL WYOMING

CITY           SKY/WX    TMP DP  RH WIND       PRES   REMARKS
BIG PINEY      MIX PCPN  36  32  85 SW21      30.01R WCI  25
PINEDALE       DRIZZLE   36  32  87 SW18      30.00S WCI  25
DUBOIS         RAIN      34  32  93 W17       29.86F WCI  23
LANDER         CLOUDY    47  33  58 W21G32    29.89S
RIVERTON       CLOUDY    42  33  70 SW13      29.90S
CASPER         FAIR      44  31  60 SW30G43   29.89R
DOUGLAS        FAIR      51  29  42 W30G39    29.89R

$$
WYZ021-027>030-104>119-211500-
SOUTHERN WYOMING

CITY           SKY/WX    TMP DP  RH WIND       PRES   REMARKS
EVANSTON       FAIR      38  29  70 SW28      30.05R WCI  26
KEMMERER         N/A     37  32  81 SW22G29   30.04R WCI  27
FORT BRIDGER   FAIR      40  30  66 SW14      30.08S WCI  33
ROCK SPRINGS   FAIR      39  28  64 SW8       30.06R WCI  33
DIXON            N/A     42  31  65 S20G32    30.16R
RAWLINS        CLOUDY    40  30  67 SW21G30   30.08R WCI  30
SARATOGA       FAIR      39  30  70 SW20G25   30.12R WCI  30
LARAMIE        FAIR      36  26  67 VRB3      30.06S
CHEYENNE       FAIR      47  26  44 W30G38    30.02S
TORRINGTON     FAIR      52  28  39 W22G30    29.89F
PINE BLUFFS    FAIR      46  27  46 SW7G20    29.98S

$$




USA.gov is the U.S. government's official web portal to all federal, state and local government web resources and services.